• Em Portugal
  • Lista de países
  • Para 7 dias
  • Temperatura da água
  • Mapas de satélite
  • Mapa do tempo
  • Widgets de tempo
  • user-avatar
    Iniciar Sessão

    Previsão horária em Bursa

    Hoje, 16 Dezembro, Sábado

    Tempo Temperatura Precipitação Vento Pressão Humidade
    00:00 +10°C° 0 mm 3 m/s 731 mmHg 78%
    01:00 +10°C° 0 mm 3 m/s 731 mmHg 80%
    02:00 +10°C° 0 mm 3 m/s 731 mmHg 81%
    03:00 +10°C° 0 mm 4 m/s 730 mmHg 82%
    04:00 +10°C° 0 mm 4 m/s 730 mmHg 82%
    05:00 +10°C° 0 mm 4 m/s 730 mmHg 83%
    06:00 +10°C° 0 mm 4 m/s 731 mmHg 81%
    07:00 +9°C° 0 mm 5 m/s 731 mmHg 80%
    08:00 +10°C° 0 mm 5 m/s 731 mmHg 79%
    09:00 +11°C° 0 mm 6 m/s 731 mmHg 73%
    10:00 +14°C° 0 mm 6 m/s 731 mmHg 67%
    11:00 +16°C° 0 mm 7 m/s 731 mmHg 61%
    12:00 +16°C° 0 mm 7 m/s 730 mmHg 59%
    13:00 +17°C° 0 mm 6 m/s 730 mmHg 56%
    14:00 +17°C° 0 mm 6 m/s 729 mmHg 54%
    15:00 +16°C° 0 mm 5 m/s 729 mmHg 58%
    16:00 +15°C° 0 mm 4 m/s 729 mmHg 62%
    17:00 +14°C° 0 mm 4 m/s 729 mmHg 65%
    18:00 +14°C° 0 mm 4 m/s 729 mmHg 67%
    19:00 +13°C° 0 mm 3 m/s 730 mmHg 68%
    20:00 +13°C° 0 mm 3 m/s 730 mmHg 70%
    21:00 +13°C° 0 mm 4 m/s 730 mmHg 70%
    22:00 +13°C° 0 mm 5 m/s 730 mmHg 70%
    23:00 +13°C° 0 mm 5 m/s 730 mmHg 71%

    Amanhã, 17 Dezembro, Domingo

    Tempo Temperatura Precipitação Vento Pressão Humidade
    00:00 +13°C° 0,2 mm 5 m/s 729 mmHg 73%
    01:00 +12°C° 0,2 mm 5 m/s 729 mmHg 76%
    02:00 +12°C° 0,2 mm 5 m/s 729 mmHg 78%
    03:00 +12°C° 0 mm 4 m/s 729 mmHg 79%
    04:00 +12°C° 0 mm 4 m/s 728 mmHg 79%
    05:00 +11°C° 0 mm 4 m/s 728 mmHg 80%
    06:00 +12°C° 0 mm 4 m/s 728 mmHg 80%
    07:00 +12°C° 0 mm 4 m/s 728 mmHg 79%
    08:00 +12°C° 0 mm 4 m/s 728 mmHg 79%
    09:00 +13°C° 0 mm 5 m/s 728 mmHg 72%
    10:00 +15°C° 0 mm 7 m/s 728 mmHg 65%
    11:00 +16°C° 0 mm 8 m/s 728 mmHg 58%
    12:00 +16°C° 0,1 mm 8 m/s 728 mmHg 59%
    13:00 +16°C° 0,1 mm 8 m/s 727 mmHg 59%
    14:00 +16°C° 0,1 mm 8 m/s 727 mmHg 59%
    15:00 +15°C° 0,2 mm 7 m/s 727 mmHg 63%
    16:00 +15°C° 0,2 mm 7 m/s 727 mmHg 67%
    17:00 +14°C° 0,2 mm 6 m/s 727 mmHg 71%
    18:00 +14°C° 1 mm 5 m/s 728 mmHg 75%
    19:00 +13°C° 1 mm 5 m/s 728 mmHg 79%
    20:00 +13°C° 1 mm 4 m/s 729 mmHg 83%
    21:00 +12°C° 1,7 mm 3 m/s 729 mmHg 86%
    22:00 +12°C° 1,7 mm 3 m/s 730 mmHg 90%
    23:00 +12°C° 1,7 mm 2 m/s 730 mmHg 93%

    Depois de amanhã, 18 Dezembro, Segunda-feira

    Tempo Temperatura Precipitação Vento Pressão Humidade
    00:00 +12°C° 0,9 mm 2 m/s 731 mmHg 93%
    01:00 +10°C° 0,9 mm 2 m/s 731 mmHg 93%
    02:00 +10°C° 0,9 mm 2 m/s 731 mmHg 94%
    03:00 +10°C° 0,1 mm 2 m/s 732 mmHg 94%
    04:00 +9°C° 0,1 mm 2 m/s 732 mmHg 94%
    05:00 +9°C° 0,1 mm 2 m/s 732 mmHg 94%
    06:00 +9°C° 0,1 mm 2 m/s 732 mmHg 94%
    07:00 +9°C° 0,1 mm 2 m/s 732 mmHg 93%
    08:00 +9°C° 0,1 mm 2 m/s 733 mmHg 93%
    09:00 +9°C° 0,1 mm 2 m/s 733 mmHg 88%
    10:00 +10°C° 0,1 mm 2 m/s 733 mmHg 83%
    11:00 +12°C° 0,1 mm 2 m/s 733 mmHg 79%
    12:00 +12°C° 0,2 mm 2 m/s 732 mmHg 77%
    13:00 +11°C° 0,2 mm 3 m/s 732 mmHg 75%
    14:00 +11°C° 0,2 mm 3 m/s 731 mmHg 74%
    15:00 +10°C° 0,3 mm 3 m/s 731 mmHg 78%
    16:00 +9°C° 0,3 mm 3 m/s 731 mmHg 82%
    17:00 +9°C° 0,3 mm 3 m/s 731 mmHg 86%
    18:00 +8°C° 0,4 mm 2 m/s 731 mmHg 88%
    19:00 +8°C° 0,4 mm 2 m/s 731 mmHg 89%
    20:00 +8°C° 0,4 mm 2 m/s 732 mmHg 90%
    21:00 +8°C° 0,5 mm 2 m/s 732 mmHg 91%
    22:00 +7°C° 0,5 mm 2 m/s 732 mmHg 91%
    23:00 +7°C° 0,5 mm 3 m/s 732 mmHg 91%

    19 Dezembro, Terça-feira

    Tempo Temperatura Precipitação Vento Pressão Humidade
    00:00 +7°C° 0,4 mm 3 m/s 733 mmHg 91%
    01:00 +5°C° 0,4 mm 3 m/s 733 mmHg 91%
    02:00 +5°C° 0,4 mm 4 m/s 734 mmHg 92%
    03:00 +5°C° 1 mm 4 m/s 734 mmHg 92%
    04:00 +4°C° 1 mm 4 m/s 735 mmHg 92%
    05:00 +4°C° 1 mm 4 m/s 736 mmHg 92%
    06:00 +4°C° 0,7 mm 3 m/s 736 mmHg 92%
    07:00 +4°C° 0,7 mm 3 m/s 737 mmHg 92%
    08:00 +4°C° 0,7 mm 3 m/s 737 mmHg 92%
    09:00 +4°C° 0,3 mm 3 m/s 738 mmHg 91%
    10:00 +4°C° 0,3 mm 3 m/s 738 mmHg 89%
    11:00 +4°C° 0,3 mm 3 m/s 738 mmHg 88%
    12:00 +4°C° 0,2 mm 3 m/s 738 mmHg 87%
    13:00 +4°C° 0,2 mm 3 m/s 738 mmHg 86%
    14:00 +4°C° 0,2 mm 3 m/s 738 mmHg 85%
    15:00 +3°C° 0,1 mm 3 m/s 739 mmHg 86%
    16:00 +3°C° 0,1 mm 3 m/s 739 mmHg 86%
    17:00 +3°C° 0,1 mm 3 m/s 739 mmHg 87%
    18:00 +2°C° 0,1 mm 3 m/s 740 mmHg 87%
    19:00 +2°C° 0,1 mm 3 m/s 740 mmHg 88%
    20:00 +2°C° 0,1 mm 3 m/s 740 mmHg 89%
    21:00 +2°C° 0,1 mm 3 m/s 741 mmHg 89%
    22:00 +2°C° 0,1 mm 3 m/s 741 mmHg 88%
    23:00 +1°C° 0,1 mm 3 m/s 741 mmHg 88%

    20 Dezembro, Quarta-feira

    Tempo Temperatura Precipitação Vento Pressão Humidade
    00:00 +1°C° 0,1 mm 3 m/s 741 mmHg 88%
    01:00 +1°C° 0,1 mm 3 m/s 741 mmHg 88%
    02:00 +1°C° 0,1 mm 3 m/s 741 mmHg 88%
    03:00 +1°C° 0,1 mm 3 m/s 741 mmHg 88%
    04:00 +1°C° 0,1 mm 3 m/s 741 mmHg 89%
    05:00 0°C° 0,1 mm 3 m/s 741 mmHg 90%
    06:00 0°C° 0,1 mm 3 m/s 741 mmHg 89%
    07:00 0°C° 0,1 mm 3 m/s 741 mmHg 89%
    08:00 0°C° 0,1 mm 3 m/s 742 mmHg 89%
    09:00 +1°C° 0,1 mm 3 m/s 742 mmHg 83%
    10:00 +1°C° 0,1 mm 4 m/s 742 mmHg 77%
    11:00 +3°C° 0,1 mm 4 m/s 742 mmHg 72%
    12:00 +3°C° 0,1 mm 4 m/s 741 mmHg 71%
    13:00 +3°C° 0,1 mm 4 m/s 741 mmHg 71%
    14:00 +2°C° 0,1 mm 5 m/s 741 mmHg 70%
    15:00 +2°C° 0,1 mm 5 m/s 741 mmHg 75%
    16:00 +1°C° 0,1 mm 4 m/s 741 mmHg 79%
    17:00 +1°C° 0,1 mm 4 m/s 742 mmHg 84%
    18:00 0°C° 0,1 mm 4 m/s 742 mmHg 86%
    19:00 0°C° 0,1 mm 4 m/s 742 mmHg 88%
    20:00 0°C° 0,1 mm 4 m/s 742 mmHg 90%
    21:00 -1°C° 0,1 mm 4 m/s 742 mmHg 91%
    22:00 0°C° 0,1 mm 3 m/s 742 mmHg 91%
    23:00 0°C° 0,1 mm 3 m/s 742 mmHg 91%

    21 Dezembro, Quinta-feira

    Tempo Temperatura Precipitação Vento Pressão Humidade
    00:00 0°C° 0 mm 3 m/s 742 mmHg 91%
    01:00 0°C° 0 mm 3 m/s 742 mmHg 91%
    02:00 0°C° 0 mm 3 m/s 742 mmHg 91%
    03:00 0°C° 0 mm 3 m/s 742 mmHg 91%
    04:00 -1°C° 0 mm 2 m/s 742 mmHg 91%
    05:00 -1°C° 0 mm 2 m/s 742 mmHg 92%
    06:00 -1°C° 0 mm 2 m/s 742 mmHg 91%
    07:00 -1°C° 0 mm 2 m/s 742 mmHg 90%
    08:00 +1°C° 0 mm 1 m/s 742 mmHg 90%
    09:00 +2°C° 0 mm 1 m/s 742 mmHg 82%
    10:00 +3°C° 0 mm 1 m/s 742 mmHg 75%
    11:00 +4°C° 0 mm 1 m/s 742 mmHg 68%
    12:00 +5°C° 0 mm 1 m/s 741 mmHg 64%
    13:00 +5°C° 0 mm 1 m/s 741 mmHg 61%
    14:00 +6°C° 0 mm 1 m/s 740 mmHg 57%
    15:00 +4°C° 0 mm 1 m/s 740 mmHg 64%
    16:00 +3°C° 0 mm 1 m/s 740 mmHg 70%
    17:00 +2°C° 0 mm 1 m/s 740 mmHg 76%
    18:00 +2°C° 0 mm 1 m/s 740 mmHg 77%
    19:00 +1°C° 0 mm 1 m/s 740 mmHg 79%
    20:00 +1°C° 0 mm 1 m/s 740 mmHg 81%
    21:00 +1°C° 0 mm 1 m/s 740 mmHg 79%
    22:00 +1°C° 0 mm 1 m/s 740 mmHg 77%
    23:00 +1°C° 0 mm 1 m/s 740 mmHg 75%
    Mostrar mais